Time,TemperatureF,DewpointF,PressureIn,WindDirection,WindDirectionDegrees,WindSpeedMPH,WindSpeedGustMPH,Humidity,HourlyPrecipIn,Conditions,Clouds,dailyrainin,SoftwareType,DateUTC
2013-07-15 00:01:00,75.6,71.1,30.24,West,279,0.0,0.0,86,0.00,,,0.00,VWS V14.01,2013-07-15 04:01:00,
2013-07-15 00:06:00,75.5,71.0,30.24,West,279,0.0,0.0,86,0.00,,,0.00,VWS V14.01,2013-07-15 04:06:00,
2013-07-15 00:11:00,75.4,70.9,30.24,West,279,0.0,0.0,86,0.00,,,0.00,VWS V14.01,2013-07-15 04:11:00,
2013-07-15 00:16:00,75.3,70.8,30.24,West,279,0.0,0.0,86,0.00,,,0.00,VWS V14.01,2013-07-15 04:16:00,
2013-07-15 00:21:00,75.2,70.7,30.24,West,279,0.0,0.0,86,0.00,,,0.00,VWS V14.01,2013-07-15 04:21:00,
2013-07-15 00:26:00,75.1,71.0,30.24,West,279,0.0,0.0,87,0.00,,,0.00,VWS V14.01,2013-07-15 04:26:00,
2013-07-15 00:31:00,75.0,70.9,30.24,West,279,0.0,0.0,87,0.00,,,0.00,VWS V14.01,2013-07-15 04:31:00,
2013-07-15 00:36:00,74.9,70.8,30.24,West,279,0.0,0.0,87,0.00,,,0.00,VWS V14.01,2013-07-15 04:36:00,
2013-07-15 00:41:00,74.7,70.6,30.24,West,279,0.0,0.0,87,0.00,,,0.00,VWS V14.01,2013-07-15 04:41:00,
2013-07-15 00:46:00,74.6,70.8,30.24,West,279,0.0,0.0,88,0.00,,,0.00,VWS V14.01,2013-07-15 04:46:00,
2013-07-15 00:51:00,74.4,70.6,30.24,West,279,0.0,0.0,88,0.00,,,0.00,VWS V14.01,2013-07-15 04:51:00,
2013-07-15 00:56:00,74.2,70.4,30.24,West,279,0.0,0.0,88,0.00,,,0.00,VWS V14.01,2013-07-15 04:56:00,
2013-07-15 01:01:00,74.0,70.6,30.24,West,279,0.0,0.0,89,0.00,,,0.00,VWS V14.01,2013-07-15 05:01:00,
2013-07-15 01:06:00,73.9,70.5,30.24,West,279,0.0,0.0,89,0.00,,,0.00,VWS V14.01,2013-07-15 05:06:00,
2013-07-15 01:11:00,73.7,70.3,30.24,West,279,0.0,0.0,89,0.00,,,0.00,VWS V14.01,2013-07-15 05:11:00,
2013-07-15 01:16:00,73.6,70.2,30.24,West,279,0.0,0.0,89,0.00,,,0.00,VWS V14.01,2013-07-15 05:16:00,
2013-07-15 01:21:00,73.5,70.4,30.24,West,279,0.0,0.0,90,0.00,,,0.00,VWS V14.01,2013-07-15 05:21:00,
2013-07-15 01:26:00,73.4,70.3,30.24,West,279,0.0,0.0,90,0.00,,,0.00,VWS V14.01,2013-07-15 05:26:00,
2013-07-15 01:31:00,73.3,70.2,30.24,West,279,0.0,0.0,90,0.00,,,0.00,VWS V14.01,2013-07-15 05:31:00,
2013-07-15 01:36:00,73.2,70.1,30.24,West,279,0.0,0.0,90,0.00,,,0.00,VWS V14.01,2013-07-15 05:36:00,
2013-07-15 01:41:00,73.1,70.0,30.24,West,279,0.0,1.0,90,0.00,,,0.00,VWS V14.01,2013-07-15 05:41:00,
2013-07-15 01:46:00,73.1,70.0,30.24,West,279,0.0,1.0,90,0.00,,,0.00,VWS V14.01,2013-07-15 05:46:00,
2013-07-15 01:51:00,73.0,70.2,30.24,West,279,0.0,0.0,91,0.00,,,0.00,VWS V14.01,2013-07-15 05:51:00,
2013-07-15 01:56:00,72.9,70.1,30.24,West,279,0.0,0.0,91,0.00,,,0.00,VWS V14.01,2013-07-15 05:56:00,
2013-07-15 02:01:00,72.9,70.1,30.24,West,279,0.0,0.0,91,0.00,,,0.00,VWS V14.01,2013-07-15 06:01:00,
2013-07-15 02:06:00,72.9,70.1,30.24,West,279,0.0,0.0,91,0.00,,,0.00,VWS V14.01,2013-07-15 06:06:00,
2013-07-15 02:11:00,72.8,70.0,30.24,West,279,0.0,0.0,91,0.00,,,0.00,VWS V14.01,2013-07-15 06:11:00,
2013-07-15 02:16:00,72.8,70.0,30.24,West,279,0.0,0.0,91,0.00,,,0.00,VWS V14.01,2013-07-15 06:16:00,
2013-07-15 02:21:00,72.8,70.0,30.24,West,279,0.0,0.0,91,0.00,,,0.00,VWS V14.01,2013-07-15 06:21:00,
2013-07-15 02:26:00,72.8,70.3,30.24,West,279,0.0,0.0,92,0.00,,,0.00,VWS V14.01,2013-07-15 06:26:00,
2013-07-15 02:31:00,72.8,70.3,30.24,West,279,0.0,0.0,92,0.00,,,0.00,VWS V14.01,2013-07-15 06:31:00,
2013-07-15 02:36:00,72.8,70.3,30.24,West,279,0.0,0.0,92,0.00,,,0.00,VWS V14.01,2013-07-15 06:36:00,
2013-07-15 02:41:00,72.8,70.3,30.24,West,281,0.0,0.0,92,0.00,,,0.00,VWS V14.01,2013-07-15 06:41:00,
2013-07-15 02:46:00,72.8,70.3,30.24,West,281,0.0,0.0,92,0.00,,,0.00,VWS V14.01,2013-07-15 06:46:00,
2013-07-15 02:51:00,72.8,70.3,30.24,West,281,0.0,0.0,92,0.00,,,0.00,VWS V14.01,2013-07-15 06:51:00,
2013-07-15 02:56:00,72.8,70.3,30.24,West,281,0.0,0.0,92,0.00,,,0.00,VWS V14.01,2013-07-15 06:56:00,
2013-07-15 03:01:00,72.7,70.2,30.24,West,281,0.0,0.0,92,0.00,,,0.00,VWS V14.01,2013-07-15 07:01:00,
2013-07-15 03:06:00,72.7,70.2,30.24,West,281,0.0,0.0,92,0.00,,,0.00,VWS V14.01,2013-07-15 07:06:00,
2013-07-15 03:11:00,72.8,70.3,30.24,West,281,0.0,0.0,92,0.00,,,0.00,VWS V14.01,2013-07-15 07:11:00,
2013-07-15 03:16:00,72.7,70.2,30.24,West,281,0.0,0.0,92,0.00,,,0.00,VWS V14.01,2013-07-15 07:16:00,
2013-07-15 03:21:00,72.7,70.2,30.24,West,281,0.0,0.0,92,0.00,,,0.00,VWS V14.01,2013-07-15 07:21:00,
2013-07-15 03:26:00,72.7,70.2,30.24,West,281,0.0,0.0,92,0.00,,,0.00,VWS V14.01,2013-07-15 07:26:00,
2013-07-15 03:31:00,72.7,70.2,30.24,West,275,0.0,0.0,92,0.00,,,0.00,VWS V14.01,2013-07-15 07:31:00,
2013-07-15 03:36:00,72.6,70.2,30.24,West,275,0.0,0.0,92,0.00,,,0.00,VWS V14.01,2013-07-15 07:36:00,
2013-07-15 03:41:00,72.6,70.2,30.24,West,275,0.0,0.0,92,0.00,,,0.00,VWS V14.01,2013-07-15 07:41:00,
2013-07-15 03:46:00,72.6,70.2,30.24,West,275,0.0,0.0,92,0.00,,,0.00,VWS V14.01,2013-07-15 07:46:00,
2013-07-15 03:51:00,72.6,70.2,30.24,West,275,0.0,0.0,92,0.00,,,0.00,VWS V14.01,2013-07-15 07:51:00,
2013-07-15 03:56:00,72.6,70.2,30.24,West,275,0.0,0.0,92,0.00,,,0.00,VWS V14.01,2013-07-15 07:56:00,
2013-07-15 04:01:00,72.6,70.2,30.23,West,275,0.0,0.0,92,0.00,,,0.00,VWS V14.01,2013-07-15 08:01:00,
2013-07-15 04:06:00,72.5,70.4,30.23,West,275,0.0,0.0,93,0.00,,,0.00,VWS V14.01,2013-07-15 08:06:00,
2013-07-15 04:11:00,72.5,70.4,30.23,West,275,0.0,0.0,93,0.00,,,0.00,VWS V14.01,2013-07-15 08:11:00,
2013-07-15 04:16:00,72.4,70.3,30.23,West,275,0.0,0.0,93,0.00,,,0.00,VWS V14.01,2013-07-15 08:16:00,
2013-07-15 04:21:00,72.4,70.3,30.23,West,275,0.0,0.0,93,0.00,,,0.00,VWS V14.01,2013-07-15 08:21:00,
2013-07-15 04:26:00,72.4,70.3,30.23,West,275,0.0,0.0,93,0.00,,,0.00,VWS V14.01,2013-07-15 08:26:00,
2013-07-15 04:31:00,72.3,70.2,30.23,West,275,0.0,0.0,93,0.00,,,0.00,VWS V14.01,2013-07-15 08:31:00,
2013-07-15 04:36:00,72.3,70.2,30.23,West,275,0.0,0.0,93,0.00,,,0.00,VWS V14.01,2013-07-15 08:36:00,
2013-07-15 04:41:00,72.2,70.1,30.23,West,275,0.0,0.0,93,0.00,,,0.00,VWS V14.01,2013-07-15 08:41:00,
2013-07-15 04:46:00,72.2,70.1,30.23,West,275,0.0,0.0,93,0.00,,,0.00,VWS V14.01,2013-07-15 08:46:00,
2013-07-15 04:51:00,72.1,70.0,30.23,West,275,0.0,0.0,93,0.00,,,0.00,VWS V14.01,2013-07-15 08:51:00,
2013-07-15 04:56:00,72.1,70.0,30.23,West,275,0.0,0.0,93,0.00,,,0.00,VWS V14.01,2013-07-15 08:56:00,
2013-07-15 05:01:00,72.0,69.9,30.24,West,275,0.0,0.0,93,0.00,,,0.00,VWS V14.01,2013-07-15 09:01:00,
2013-07-15 05:06:00,72.0,69.9,30.24,West,275,0.0,0.0,93,0.00,,,0.00,VWS V14.01,2013-07-15 09:06:00,
2013-07-15 05:11:00,71.9,69.8,30.24,West,275,0.0,0.0,93,0.00,,,0.00,VWS V14.01,2013-07-15 09:11:00,
2013-07-15 05:16:00,71.9,69.8,30.24,West,275,0.0,0.0,93,0.00,,,0.00,VWS V14.01,2013-07-15 09:16:00,
2013-07-15 05:21:00,71.8,69.7,30.24,West,275,0.0,0.0,93,0.00,,,0.00,VWS V14.01,2013-07-15 09:21:00,
2013-07-15 05:26:00,71.8,69.7,30.24,West,275,0.0,0.0,93,0.00,,,0.00,VWS V14.01,2013-07-15 09:26:00,
2013-07-15 05:31:00,71.7,69.6,30.24,West,275,0.0,0.0,93,0.00,,,0.00,VWS V14.01,2013-07-15 09:31:00,
2013-07-15 05:36:00,71.7,69.6,30.24,West,275,0.0,0.0,93,0.00,,,0.00,VWS V14.01,2013-07-15 09:36:00,
2013-07-15 05:41:00,71.6,69.5,30.24,West,275,0.0,0.0,93,0.00,,,0.00,VWS V14.01,2013-07-15 09:41:00,
2013-07-15 05:46:00,71.6,69.5,30.24,West,275,0.0,0.0,93,0.00,,,0.00,VWS V14.01,2013-07-15 09:46:00,
2013-07-15 05:51:00,71.6,69.5,30.24,West,275,0.0,0.0,93,0.00,,,0.00,VWS V14.01,2013-07-15 09:51:00,
2013-07-15 05:56:00,71.6,69.8,30.24,West,275,0.0,0.0,94,0.00,,,0.00,VWS V14.01,2013-07-15 09:56:00,
2013-07-15 06:01:00,71.6,69.8,30.24,West,275,0.0,0.0,94,0.00,,,0.00,VWS V14.01,2013-07-15 10:01:00,
2013-07-15 06:06:00,71.6,69.8,30.24,West,275,0.0,0.0,94,0.00,,,0.00,VWS V14.01,2013-07-15 10:06:00,
2013-07-15 06:11:00,71.6,69.8,30.24,West,275,0.0,0.0,94,0.00,,,0.00,VWS V14.01,2013-07-15 10:11:00,
2013-07-15 06:16:00,71.6,69.8,30.24,West,275,0.0,0.0,94,0.00,,,0.00,VWS V14.01,2013-07-15 10:16:00,
2013-07-15 06:21:00,71.6,69.8,30.24,West,275,0.0,0.0,94,0.00,,,0.00,VWS V14.01,2013-07-15 10:21:00,
2013-07-15 06:26:00,71.6,69.8,30.24,West,275,0.0,0.0,94,0.00,,,0.00,VWS V14.01,2013-07-15 10:26:00,
2013-07-15 06:31:00,71.7,69.9,30.24,West,275,0.0,0.0,94,0.00,,,0.00,VWS V14.01,2013-07-15 10:31:00,
2013-07-15 06:36:00,71.7,69.9,30.24,West,275,0.0,0.0,94,0.00,,,0.00,VWS V14.01,2013-07-15 10:36:00,
2013-07-15 06:41:00,71.8,70.0,30.24,West,275,0.0,0.0,94,0.00,,,0.00,VWS V14.01,2013-07-15 10:41:00,
2013-07-15 06:46:00,71.9,70.1,30.25,West,275,0.0,0.0,94,0.00,,,0.00,VWS V14.01,2013-07-15 10:46:00,
2013-07-15 06:51:00,72.0,70.2,30.25,West,275,0.0,0.0,94,0.00,,,0.00,VWS V14.01,2013-07-15 10:51:00,
2013-07-15 06:56:00,72.1,70.3,30.25,West,275,0.0,0.0,94,0.00,,,0.00,VWS V14.01,2013-07-15 10:56:00,
2013-07-15 07:01:00,72.2,70.7,30.24,West,275,0.0,0.0,95,0.00,,,0.00,VWS V14.01,2013-07-15 11:01:00,
2013-07-15 07:06:00,72.2,70.7,30.24,West,275,0.0,0.0,95,0.00,,,0.00,VWS V14.01,2013-07-15 11:06:00,
2013-07-15 07:11:00,72.3,70.8,30.24,West,275,0.0,0.0,95,0.00,,,0.00,VWS V14.01,2013-07-15 11:11:00,
2013-07-15 07:16:00,72.4,70.9,30.24,West,275,1.0,1.0,95,0.00,,,0.00,VWS V14.01,2013-07-15 11:16:00,
2013-07-15 07:21:00,72.6,71.1,30.24,West,275,0.0,0.0,95,0.00,,,0.00,VWS V14.01,2013-07-15 11:21:00,
2013-07-15 07:26:00,72.6,71.1,30.24,West,275,0.0,0.0,95,0.00,,,0.00,VWS V14.01,2013-07-15 11:26:00,
2013-07-15 07:31:00,72.8,71.3,30.24,West,275,0.0,0.0,95,0.00,,,0.00,VWS V14.01,2013-07-15 11:31:00,
2013-07-15 07:36:00,72.8,71.3,30.24,West,275,0.0,0.0,95,0.00,,,0.00,VWS V14.01,2013-07-15 11:36:00,
2013-07-15 07:41:00,73.0,71.5,30.24,West,277,0.0,1.0,95,0.00,,,0.00,VWS V14.01,2013-07-15 11:41:00,
2013-07-15 07:46:00,73.1,71.6,30.24,NW,306,3.0,4.0,95,0.00,,,0.00,VWS V14.01,2013-07-15 11:46:00,
2013-07-15 07:51:00,73.2,71.7,30.24,WNW,296,0.0,0.0,95,0.00,,,0.00,VWS V14.01,2013-07-15 11:51:00,
2013-07-15 07:56:00,73.3,71.8,30.24,WNW,297,0.0,2.0,95,0.00,,,0.00,VWS V14.01,2013-07-15 11:56:00,
2013-07-15 08:01:00,73.5,72.0,30.24,NW,325,1.0,2.0,95,0.00,,,0.00,VWS V14.01,2013-07-15 12:01:00,
2013-07-15 08:06:00,73.7,71.9,30.24,WSW,254,0.0,7.0,94,0.00,,,0.00,VWS V14.01,2013-07-15 12:06:00,
2013-07-15 08:11:00,74.0,72.2,30.24,WNW,287,2.0,5.0,94,0.00,,,0.00,VWS V14.01,2013-07-15 12:11:00,
2013-07-15 08:16:00,74.4,72.2,30.24,West,273,0.0,6.0,93,0.00,,,0.00,VWS V14.01,2013-07-15 12:16:00,
2013-07-15 08:21:00,74.8,72.3,30.24,WNW,286,3.0,4.0,92,0.00,,,0.00,VWS V14.01,2013-07-15 12:21:00,
2013-07-15 08:26:00,75.2,72.4,30.24,West,268,0.0,6.0,91,0.00,,,0.00,VWS V14.01,2013-07-15 12:26:00,
2013-07-15 08:31:00,75.5,72.7,30.24,WNW,290,0.0,0.0,91,0.00,,,0.00,VWS V14.01,2013-07-15 12:31:00,
2013-07-15 08:36:00,75.8,72.7,30.24,NW,304,5.0,5.0,90,0.00,,,0.00,VWS V14.01,2013-07-15 12:36:00,
2013-07-15 08:41:00,76.2,72.7,30.24,WNW,291,4.0,5.0,89,0.00,,,0.00,VWS V14.01,2013-07-15 12:41:00,
2013-07-15 08:46:00,76.4,72.6,30.24,NNW,345,0.0,5.0,88,0.00,,,0.00,VWS V14.01,2013-07-15 12:46:00,
2013-07-15 08:51:00,76.7,72.5,30.24,West,273,2.0,3.0,87,0.00,,,0.00,VWS V14.01,2013-07-15 12:51:00,
2013-07-15 08:56:00,77.1,72.9,30.24,West,274,0.0,3.0,87,0.00,,,0.00,VWS V14.01,2013-07-15 12:56:00,
2013-07-15 09:01:00,77.5,73.0,30.24,NW,304,2.0,2.0,86,0.00,,,0.00,VWS V14.01,2013-07-15 13:01:00,
2013-07-15 09:06:00,77.9,73.4,30.24,NNW,347,0.0,3.0,86,0.00,,,0.00,VWS V14.01,2013-07-15 13:06:00,
2013-07-15 09:11:00,78.3,73.4,30.24,NW,304,0.0,0.0,85,0.00,,,0.00,VWS V14.01,2013-07-15 13:11:00,
2013-07-15 09:16:00,78.7,73.1,30.24,WSW,256,1.0,6.0,83,0.00,,,0.00,VWS V14.01,2013-07-15 13:16:00,
2013-07-15 09:21:00,79.1,73.1,30.24,NW,311,0.0,0.0,82,0.00,,,0.00,VWS V14.01,2013-07-15 13:21:00,
2013-07-15 09:26:00,79.4,73.1,30.24,North,350,0.0,6.0,81,0.00,,,0.00,VWS V14.01,2013-07-15 13:26:00,
2013-07-15 09:31:00,79.8,73.4,30.24,North,9,2.0,2.0,81,0.00,,,0.00,VWS V14.01,2013-07-15 13:31:00,
2013-07-15 09:36:00,80.2,73.5,30.24,WNW,303,1.0,4.0,80,0.00,,,0.00,VWS V14.01,2013-07-15 13:36:00,
2013-07-15 09:41:00,80.8,74.1,30.24,WNW,296,0.0,0.0,80,0.00,,,0.00,VWS V14.01,2013-07-15 13:41:00,
2013-07-15 09:46:00,81.5,74.0,30.23,WNW,294,0.0,5.0,78,0.00,,,0.00,VWS V14.01,2013-07-15 13:46:00,
2013-07-15 09:51:00,82.0,74.1,30.23,West,273,0.0,1.0,77,0.00,,,0.00,VWS V14.01,2013-07-15 13:51:00,
2013-07-15 09:56:00,82.5,74.2,30.23,NNW,333,0.0,4.0,76,0.00,,,0.00,VWS V14.01,2013-07-15 13:56:00,
2013-07-15 10:01:00,83.0,73.9,30.23,North,11,0.0,0.0,74,0.00,,,0.00,VWS V14.01,2013-07-15 14:01:00,
2013-07-15 10:06:00,83.5,74.8,30.23,NNW,344,2.0,2.0,75,0.00,,,0.00,VWS V14.01,2013-07-15 14:06:00,
2013-07-15 10:11:00,84.0,74.4,30.23,WNW,303,2.0,2.0,73,0.00,,,0.00,VWS V14.01,2013-07-15 14:11:00,
2013-07-15 10:16:00,84.5,74.9,30.22,NNW,336,0.0,7.0,73,0.00,,,0.00,VWS V14.01,2013-07-15 14:16:00,
2013-07-15 10:21:00,84.9,74.9,30.22,NNE,25,0.0,1.0,72,0.00,,,0.00,VWS V14.01,2013-07-15 14:21:00,
2013-07-15 10:26:00,85.2,74.7,30.22,North,355,0.0,8.0,71,0.00,,,0.00,VWS V14.01,2013-07-15 14:26:00,
2013-07-15 10:31:00,85.5,75.0,30.22,West,281,1.0,1.0,71,0.00,,,0.00,VWS V14.01,2013-07-15 14:31:00,
2013-07-15 10:35:00,85.7,74.8,30.22,NNW,331,0.0,2.0,70,0.00,,,0.00,VWS V14.01,2013-07-15 14:35:00,
2013-07-15 10:40:00,86.1,75.6,30.22,North,355,1.0,1.0,71,0.00,,,0.00,VWS V14.01,2013-07-15 14:40:00,
2013-07-15 10:45:00,86.3,74.9,30.22,NE,39,1.0,3.0,69,0.00,,,0.00,VWS V14.01,2013-07-15 14:45:00,
2013-07-15 10:51:00,86.1,74.8,30.22,NW,306,6.0,6.0,69,0.00,,,0.00,VWS V14.01,2013-07-15 14:51:00,
2013-07-15 10:56:00,86.0,75.1,30.22,NNE,22,1.0,6.0,70,0.00,,,0.00,VWS V14.01,2013-07-15 14:56:00,
2013-07-15 11:01:00,85.9,75.8,30.22,NNE,22,0.0,0.0,72,0.00,,,0.00,VWS V14.01,2013-07-15 15:01:00,
2013-07-15 11:07:00,86.2,75.3,30.22,NW,304,1.0,8.0,70,0.00,,,0.00,VWS V14.01,2013-07-15 15:07:00,
2013-07-15 11:12:00,86.3,74.9,30.22,NW,313,0.0,1.0,69,0.00,,,0.00,VWS V14.01,2013-07-15 15:12:00,
2013-07-15 11:17:00,86.5,75.1,30.21,NW,324,0.0,4.0,69,0.00,,,0.00,VWS V14.01,2013-07-15 15:17:00,
2013-07-15 11:22:00,87.1,76.1,30.21,NW,324,1.0,1.0,70,0.00,,,0.00,VWS V14.01,2013-07-15 15:22:00,
2013-07-15 11:28:00,87.2,74.9,30.21,East,93,2.0,5.0,67,0.00,,,0.00,VWS V14.01,2013-07-15 15:28:00,
2013-07-15 11:33:00,87.4,76.4,30.21,NW,323,0.0,1.0,70,0.00,,,0.00,VWS V14.01,2013-07-15 15:33:00,
2013-07-15 11:38:00,87.6,76.2,30.21,NNE,30,0.0,2.0,69,0.00,,,0.00,VWS V14.01,2013-07-15 15:38:00,
2013-07-15 11:43:00,88.2,75.9,30.21,WNW,288,2.0,3.0,67,0.00,,,0.00,VWS V14.01,2013-07-15 15:43:00,
2013-07-15 11:49:00,88.4,76.1,30.21,WNW,299,2.0,7.0,67,0.00,,,0.00,VWS V14.01,2013-07-15 15:49:00,
2013-07-15 11:54:00,88.8,76.0,30.21,ESE,104,2.0,3.0,66,0.00,,,0.00,VWS V14.01,2013-07-15 15:54:00,
2013-07-15 11:59:00,88.8,76.0,30.21,ENE,71,0.0,4.0,66,0.00,,,0.00,VWS V14.01,2013-07-15 15:59:00,
2013-07-15 12:04:00,89.0,76.6,30.20,ENE,71,0.0,1.0,67,0.00,,,0.00,VWS V14.01,2013-07-15 16:04:00,
2013-07-15 12:09:00,89.5,77.6,30.20,NE,49,0.0,2.0,68,0.00,,,0.00,VWS V14.01,2013-07-15 16:09:00,
2013-07-15 12:14:00,89.4,76.1,30.20,SE,143,0.0,4.0,65,0.00,,,0.00,VWS V14.01,2013-07-15 16:14:00,
2013-07-15 12:19:00,89.0,74.8,30.20,NE,56,0.0,4.0,63,0.00,,,0.00,VWS V14.01,2013-07-15 16:19:00,
2013-07-15 12:24:00,88.5,74.8,30.20,South,169,2.0,4.0,64,0.00,,,0.00,VWS V14.01,2013-07-15 16:24:00,
2013-07-15 12:29:00,88.7,75.0,30.20,WNW,283,1.0,5.0,64,0.00,,,0.00,VWS V14.01,2013-07-15 16:29:00,
2013-07-15 12:34:00,89.1,76.3,30.20,WNW,284,0.0,1.0,66,0.00,,,0.00,VWS V14.01,2013-07-15 16:34:00,
2013-07-15 12:40:00,89.1,74.9,30.20,NNW,342,1.0,4.0,63,0.00,,,0.00,VWS V14.01,2013-07-15 16:40:00,
2013-07-15 12:45:00,89.3,74.6,30.20,NNW,331,2.0,3.0,62,0.00,,,0.00,VWS V14.01,2013-07-15 16:45:00,
2013-07-15 12:50:00,89.1,75.3,30.20,WNW,288,0.0,5.0,64,0.00,,,0.00,VWS V14.01,2013-07-15 16:50:00,
2013-07-15 12:55:00,88.8,74.6,30.20,NNW,340,0.0,3.0,63,0.00,,,0.00,VWS V14.01,2013-07-15 16:55:00,
2013-07-15 13:00:00,88.7,75.0,30.19,WNW,297,0.0,5.0,64,0.00,,,0.00,VWS V14.01,2013-07-15 17:00:00,
2013-07-15 13:06:00,88.8,74.6,30.19,NE,34,0.0,2.0,63,0.00,,,0.00,VWS V14.01,2013-07-15 17:06:00,
2013-07-15 13:11:00,88.6,74.9,30.19,NE,34,0.0,0.0,64,0.00,,,0.00,VWS V14.01,2013-07-15 17:11:00,
2013-07-15 13:16:00,88.5,74.3,30.19,NE,34,0.0,1.0,63,0.00,,,0.00,VWS V14.01,2013-07-15 17:16:00,
2013-07-15 13:22:00,88.2,74.0,30.19,NE,46,0.0,0.0,63,0.00,,,0.00,VWS V14.01,2013-07-15 17:22:00,
2013-07-15 13:27:00,88.2,75.0,30.19,SSE,166,0.0,5.0,65,0.00,,,0.00,VWS V14.01,2013-07-15 17:27:00,
2013-07-15 13:32:00,88.4,75.1,30.18,WNW,282,5.0,5.0,65,0.00,,,0.00,VWS V14.01,2013-07-15 17:32:00,
2013-07-15 13:37:00,88.4,74.2,30.18,NNE,19,0.0,5.0,63,0.00,,,0.00,VWS V14.01,2013-07-15 17:37:00,
2013-07-15 13:42:00,88.4,74.2,30.18,North,5,1.0,1.0,63,0.00,,,0.00,VWS V14.01,2013-07-15 17:42:00,
2013-07-15 13:47:00,88.3,73.2,30.18,SE,129,1.0,3.0,61,0.00,,,0.00,VWS V14.01,2013-07-15 17:47:00,
2013-07-15 13:52:00,88.2,74.5,30.18,South,180,0.0,0.0,64,0.00,,,0.00,VWS V14.01,2013-07-15 17:52:00,
2013-07-15 13:57:00,88.1,73.9,30.18,NW,321,2.0,6.0,63,0.00,,,0.00,VWS V14.01,2013-07-15 17:57:00,
2013-07-15 14:02:00,88.1,74.4,30.17,WSW,258,0.0,5.0,64,0.00,,,0.00,VWS V14.01,2013-07-15 18:02:00,
2013-07-15 14:07:00,88.1,74.9,30.17,ENE,67,0.0,5.0,65,0.00,,,0.00,VWS V14.01,2013-07-15 18:07:00,
2013-07-15 14:12:00,87.7,74.0,30.17,NE,53,0.0,3.0,64,0.00,,,0.00,VWS V14.01,2013-07-15 18:12:00,
2013-07-15 14:17:00,87.5,74.3,30.17,NE,35,1.0,3.0,65,0.00,,,0.00,VWS V14.01,2013-07-15 18:17:00,
2013-07-15 14:23:00,87.3,74.6,30.17,NE,35,0.0,1.0,66,0.00,,,0.00,VWS V14.01,2013-07-15 18:23:00,
2013-07-15 14:28:00,87.3,75.4,30.17,NE,35,0.0,1.0,68,0.00,,,0.00,VWS V14.01,2013-07-15 18:28:00,
2013-07-15 14:33:00,87.3,74.1,30.17,NE,34,0.0,2.0,65,0.00,,,0.00,VWS V14.01,2013-07-15 18:33:00,
2013-07-15 14:38:00,87.5,74.8,30.17,South,190,2.0,3.0,66,0.00,,,0.00,VWS V14.01,2013-07-15 18:38:00,
2013-07-15 14:43:00,87.8,75.0,30.17,WNW,294,2.0,3.0,66,0.00,,,0.00,VWS V14.01,2013-07-15 18:43:00,
2013-07-15 14:48:00,87.9,74.7,30.17,WNW,294,1.0,3.0,65,0.00,,,0.00,VWS V14.01,2013-07-15 18:48:00,
2013-07-15 14:53:00,88.0,74.3,30.17,WNW,294,0.0,1.0,64,0.00,,,0.00,VWS V14.01,2013-07-15 18:53:00,
2013-07-15 14:59:00,88.1,74.4,30.17,WNW,288,0.0,4.0,64,0.00,,,0.00,VWS V14.01,2013-07-15 18:59:00,
2013-07-15 15:04:00,88.1,74.9,30.17,NW,326,3.0,6.0,65,0.00,,,0.00,VWS V14.01,2013-07-15 19:04:00,
2013-07-15 15:09:00,88.1,74.9,30.17,West,273,0.0,6.0,65,0.00,,,0.00,VWS V14.01,2013-07-15 19:09:00,
2013-07-15 15:14:00,88.1,75.3,30.17,West,273,0.0,0.0,66,0.00,,,0.00,VWS V14.01,2013-07-15 19:14:00,
2013-07-15 15:19:00,88.1,76.2,30.17,NW,308,2.0,4.0,68,0.00,,,0.00,VWS V14.01,2013-07-15 19:19:00,
2013-07-15 15:24:00,88.3,75.1,30.17,North,351,0.0,2.0,65,0.00,,,0.00,VWS V14.01,2013-07-15 19:24:00,
2013-07-15 15:29:00,88.6,75.3,30.17,NW,308,1.0,3.0,65,0.00,,,0.00,VWS V14.01,2013-07-15 19:29:00,
2013-07-15 15:35:00,88.8,75.5,30.16,NW,308,0.0,1.0,65,0.00,,,0.00,VWS V14.01,2013-07-15 19:35:00,
2013-07-15 15:40:00,89.0,74.3,30.16,NE,51,1.0,3.0,62,0.00,,,0.00,VWS V14.01,2013-07-15 19:40:00,
2013-07-15 15:45:00,89.2,75.4,30.16,NE,55,0.0,1.0,64,0.00,,,0.00,VWS V14.01,2013-07-15 19:45:00,
2013-07-15 15:50:00,89.5,75.2,30.16,NNW,332,0.0,3.0,63,0.00,,,0.00,VWS V14.01,2013-07-15 19:50:00,
2013-07-15 15:55:00,89.7,75.0,30.16,ENE,74,2.0,3.0,62,0.00,,,0.00,VWS V14.01,2013-07-15 19:55:00,
2013-07-15 16:00:00,89.5,75.2,30.16,ENE,74,0.0,3.0,63,0.00,,,0.00,VWS V14.01,2013-07-15 20:00:00,
2013-07-15 16:05:00,89.5,75.2,30.16,ENE,71,0.0,1.0,63,0.00,,,0.00,VWS V14.01,2013-07-15 20:05:00,
2013-07-15 16:10:00,89.5,74.3,30.16,NW,313,0.0,4.0,61,0.00,,,0.00,VWS V14.01,2013-07-15 20:10:00,
2013-07-15 16:16:00,89.7,74.0,30.16,West,261,5.0,7.0,60,0.00,,,0.00,VWS V14.01,2013-07-15 20:16:00,
2013-07-15 16:21:00,89.8,74.1,30.16,NNW,337,0.0,1.0,60,0.00,,,0.00,VWS V14.01,2013-07-15 20:21:00,
2013-07-15 16:26:00,89.9,74.7,30.16,ENE,65,2.0,2.0,61,0.00,,,0.00,VWS V14.01,2013-07-15 20:26:00,
2013-07-15 16:32:00,90.0,74.3,30.15,WNW,294,0.0,0.0,60,0.00,,,0.00,VWS V14.01,2013-07-15 20:32:00,
2013-07-15 16:37:00,89.9,74.7,30.15,ENE,63,1.0,3.0,61,0.00,,,0.00,VWS V14.01,2013-07-15 20:37:00,
2013-07-15 16:42:00,89.7,74.0,30.15,ENE,63,0.0,1.0,60,0.00,,,0.00,VWS V14.01,2013-07-15 20:42:00,
2013-07-15 16:48:00,89.5,73.3,30.15,ENE,73,1.0,3.0,59,0.00,,,0.00,VWS V14.01,2013-07-15 20:48:00,
2013-07-15 16:53:00,89.5,73.8,30.15,ENE,77,1.0,2.0,60,0.00,,,0.00,VWS V14.01,2013-07-15 20:53:00,
2013-07-15 16:58:00,89.5,73.8,30.15,ENE,71,1.0,3.0,60,0.00,,,0.00,VWS V14.01,2013-07-15 20:58:00,
2013-07-15 17:03:00,89.4,72.7,30.15,South,180,0.0,2.0,58,0.00,,,0.00,VWS V14.01,2013-07-15 21:03:00,
2013-07-15 17:09:00,89.5,73.3,30.15,ENE,66,0.0,3.0,59,0.00,,,0.00,VWS V14.01,2013-07-15 21:09:00,
2013-07-15 17:14:00,89.5,72.8,30.15,NW,326,0.0,2.0,58,0.00,,,0.00,VWS V14.01,2013-07-15 21:14:00,
2013-07-15 17:19:00,89.5,73.8,30.14,North,351,0.0,3.0,60,0.00,,,0.00,VWS V14.01,2013-07-15 21:19:00,
2013-07-15 17:24:00,89.7,74.5,30.14,NNE,32,0.0,4.0,61,0.00,,,0.00,VWS V14.01,2013-07-15 21:24:00,
2013-07-15 17:29:00,89.9,74.7,30.14,NW,325,0.0,7.0,61,0.00,,,0.00,VWS V14.01,2013-07-15 21:29:00,
2013-07-15 17:35:00,89.9,74.2,30.14,NW,313,1.0,5.0,60,0.00,,,0.00,VWS V14.01,2013-07-15 21:35:00,
2013-07-15 17:40:00,89.9,74.2,30.14,NW,313,0.0,5.0,60,0.00,,,0.00,VWS V14.01,2013-07-15 21:40:00,
2013-07-15 17:45:00,89.7,74.0,30.14,NNW,330,0.0,2.0,60,0.00,,,0.00,VWS V14.01,2013-07-15 21:45:00,
2013-07-15 17:50:00,89.5,74.3,30.14,NNW,345,0.0,2.0,61,0.00,,,0.00,VWS V14.01,2013-07-15 21:50:00,
2013-07-15 17:55:00,89.1,73.9,30.14,NNW,344,0.0,2.0,61,0.00,,,0.00,VWS V14.01,2013-07-15 21:55:00,
2013-07-15 18:00:00,88.9,74.2,30.14,WNW,290,1.0,4.0,62,0.00,,,0.00,VWS V14.01,2013-07-15 22:00:00,
2013-07-15 18:06:00,88.6,73.9,30.14,South,188,0.0,2.0,62,0.00,,,0.00,VWS V14.01,2013-07-15 22:06:00,
2013-07-15 18:11:00,88.3,73.2,30.14,South,188,0.0,0.0,61,0.00,,,0.00,VWS V14.01,2013-07-15 22:11:00,
2013-07-15 18:16:00,88.1,73.9,30.14,South,188,1.0,2.0,63,0.00,,,0.00,VWS V14.01,2013-07-15 22:16:00,
2013-07-15 18:21:00,87.9,73.7,30.14,ENE,78,0.0,0.0,63,0.00,,,0.00,VWS V14.01,2013-07-15 22:21:00,
2013-07-15 18:26:00,87.6,73.0,30.14,ENE,59,0.0,2.0,62,0.00,,,0.00,VWS V14.01,2013-07-15 22:26:00,
2013-07-15 18:31:00,87.5,73.4,30.14,West,261,2.0,2.0,63,0.00,,,0.00,VWS V14.01,2013-07-15 22:31:00,
2013-07-15 18:36:00,87.3,73.6,30.14,WSW,244,0.0,2.0,64,0.00,,,0.00,VWS V14.01,2013-07-15 22:36:00,
2013-07-15 18:41:00,87.1,73.4,30.14,West,264,0.0,1.0,64,0.00,,,0.00,VWS V14.01,2013-07-15 22:41:00,
2013-07-15 18:47:00,86.9,73.7,30.14,West,264,1.0,2.0,65,0.00,,,0.00,VWS V14.01,2013-07-15 22:47:00,
2013-07-15 18:52:00,86.7,74.0,30.14,West,264,0.0,0.0,66,0.00,,,0.00,VWS V14.01,2013-07-15 22:52:00,
2013-07-15 18:57:00,86.5,73.8,30.14,West,264,0.0,0.0,66,0.00,,,0.00,VWS V14.01,2013-07-15 22:57:00,
2013-07-15 19:03:00,86.4,74.2,30.14,West,264,0.0,0.0,67,0.00,,,0.00,VWS V14.01,2013-07-15 23:03:00,
2013-07-15 19:08:00,86.3,74.5,30.14,West,264,0.0,0.0,68,0.00,,,0.00,VWS V14.01,2013-07-15 23:08:00,
2013-07-15 19:14:00,86.1,74.3,30.14,West,264,0.0,0.0,68,0.00,,,0.00,VWS V14.01,2013-07-15 23:14:00,
2013-07-15 19:19:00,85.9,75.0,30.14,West,264,0.0,0.0,70,0.00,,,0.00,VWS V14.01,2013-07-15 23:19:00,
2013-07-15 19:24:00,85.7,74.8,30.14,West,264,0.0,0.0,70,0.00,,,0.00,VWS V14.01,2013-07-15 23:24:00,
2013-07-15 19:29:00,85.6,74.7,30.14,West,264,0.0,0.0,70,0.00,,,0.00,VWS V14.01,2013-07-15 23:29:00,
2013-07-15 19:35:00,85.4,74.9,30.14,West,264,0.0,0.0,71,0.00,,,0.00,VWS V14.01,2013-07-15 23:35:00,
2013-07-15 19:40:00,85.2,74.7,30.14,West,264,0.0,0.0,71,0.00,,,0.00,VWS V14.01,2013-07-15 23:40:00,
2013-07-15 19:45:00,85.0,74.6,30.14,West,264,0.0,0.0,71,0.00,,,0.00,VWS V14.01,2013-07-15 23:45:00,
2013-07-15 19:50:00,84.9,74.9,30.14,West,264,0.0,0.0,72,0.00,,,0.00,VWS V14.01,2013-07-15 23:50:00,
2013-07-15 19:55:00,84.6,74.6,30.14,West,264,0.0,0.0,72,0.00,,,0.00,VWS V14.01,2013-07-15 23:55:00,
2013-07-15 20:00:00,84.5,74.9,30.14,West,264,0.0,0.0,73,0.00,,,0.00,VWS V14.01,2013-07-16 00:00:00,
2013-07-15 20:05:00,84.2,74.6,30.14,West,264,0.0,0.0,73,0.00,,,0.00,VWS V14.01,2013-07-16 00:05:00,
2013-07-15 20:10:00,84.0,74.8,30.14,West,264,0.0,0.0,74,0.00,,,0.00,VWS V14.01,2013-07-16 00:10:00,
2013-07-15 20:16:00,83.7,74.5,30.14,West,264,0.0,0.0,74,0.00,,,0.00,VWS V14.01,2013-07-16 00:16:00,
2013-07-15 20:21:00,83.4,74.7,30.14,West,264,0.0,0.0,75,0.00,,,0.00,VWS V14.01,2013-07-16 00:21:00,
2013-07-15 20:27:00,83.1,74.4,30.14,West,264,0.0,0.0,75,0.00,,,0.00,VWS V14.01,2013-07-16 00:27:00,
2013-07-15 20:32:00,82.9,74.6,30.14,West,264,0.0,0.0,76,0.00,,,0.00,VWS V14.01,2013-07-16 00:32:00,
2013-07-15 20:37:00,82.6,74.3,30.14,West,264,0.0,0.0,76,0.00,,,0.00,VWS V14.01,2013-07-16 00:37:00,
2013-07-15 20:42:00,82.4,74.1,30.14,West,264,0.0,0.0,76,0.00,,,0.00,VWS V14.01,2013-07-16 00:42:00,
2013-07-15 20:47:00,82.1,74.2,30.14,West,264,0.0,0.0,77,0.00,,,0.00,VWS V14.01,2013-07-16 00:47:00,
2013-07-15 20:52:00,81.9,74.0,30.14,West,264,0.0,0.0,77,0.00,,,0.00,VWS V14.01,2013-07-16 00:52:00,
2013-07-15 20:57:00,81.6,73.7,30.14,West,264,0.0,0.0,77,0.00,,,0.00,VWS V14.01,2013-07-16 00:57:00,
2013-07-15 21:03:00,81.4,73.9,30.14,West,264,0.0,0.0,78,0.00,,,0.00,VWS V14.01,2013-07-16 01:03:00,
2013-07-15 21:09:00,81.2,73.7,30.14,West,264,0.0,0.0,78,0.00,,,0.00,VWS V14.01,2013-07-16 01:09:00,
2013-07-15 21:14:00,81.1,74.0,30.14,West,264,0.0,0.0,79,0.00,,,0.00,VWS V14.01,2013-07-16 01:14:00,
2013-07-15 21:19:00,80.8,73.7,30.15,West,264,0.0,0.0,79,0.00,,,0.00,VWS V14.01,2013-07-16 01:19:00,
2013-07-15 21:24:00,80.6,73.9,30.15,West,264,0.0,0.0,80,0.00,,,0.00,VWS V14.01,2013-07-16 01:24:00,
2013-07-15 21:29:00,80.4,73.7,30.15,West,264,0.0,0.0,80,0.00,,,0.00,VWS V14.01,2013-07-16 01:29:00,
2013-07-15 21:34:00,80.2,73.8,30.15,West,264,0.0,0.0,81,0.00,,,0.00,VWS V14.01,2013-07-16 01:34:00,
2013-07-15 21:39:00,80.0,73.7,30.15,West,264,0.0,0.0,81,0.00,,,0.00,VWS V14.01,2013-07-16 01:39:00,
2013-07-15 21:45:00,79.8,73.4,30.15,West,264,0.0,0.0,81,0.00,,,0.00,VWS V14.01,2013-07-16 01:45:00,
2013-07-15 21:50:00,79.6,73.3,30.15,West,264,0.0,0.0,81,0.00,,,0.00,VWS V14.01,2013-07-16 01:50:00,
2013-07-15 21:55:00,79.4,73.4,30.15,West,264,0.0,0.0,82,0.00,,,0.00,VWS V14.01,2013-07-16 01:55:00,
2013-07-15 22:00:00,79.2,73.2,30.16,West,264,0.0,0.0,82,0.00,,,0.00,VWS V14.01,2013-07-16 02:00:00,
2013-07-15 22:05:00,79.0,73.0,30.16,West,264,0.0,0.0,82,0.00,,,0.00,VWS V14.01,2013-07-16 02:05:00,
2013-07-15 22:10:00,78.8,72.8,30.16,West,264,0.0,0.0,82,0.00,,,0.00,VWS V14.01,2013-07-16 02:10:00,
2013-07-15 22:15:00,78.7,72.8,30.16,West,264,0.0,0.0,82,0.00,,,0.00,VWS V14.01,2013-07-16 02:15:00,
2013-07-15 22:20:00,78.5,72.9,30.16,West,264,0.0,0.0,83,0.00,,,0.00,VWS V14.01,2013-07-16 02:20:00,
2013-07-15 22:25:00,78.4,72.8,30.16,West,264,0.0,0.0,83,0.00,,,0.00,VWS V14.01,2013-07-16 02:25:00,
2013-07-15 22:30:00,78.3,72.7,30.16,West,264,0.0,0.0,83,0.00,,,0.00,VWS V14.01,2013-07-16 02:30:00,
2013-07-15 22:35:00,78.1,72.5,30.16,West,264,0.0,0.0,83,0.00,,,0.00,VWS V14.01,2013-07-16 02:35:00,
2013-07-15 22:40:00,78.1,72.9,30.16,West,264,0.0,0.0,84,0.00,,,0.00,VWS V14.01,2013-07-16 02:40:00,
2013-07-15 22:45:00,77.9,72.7,30.16,West,264,0.0,0.0,84,0.00,,,0.00,VWS V14.01,2013-07-16 02:45:00,
2013-07-15 22:50:00,77.8,72.6,30.16,West,264,0.0,0.0,84,0.00,,,0.00,VWS V14.01,2013-07-16 02:50:00,
2013-07-15 22:56:00,77.6,72.4,30.16,West,264,0.0,0.0,84,0.00,,,0.00,VWS V14.01,2013-07-16 02:56:00,
2013-07-15 23:01:00,77.5,72.3,30.17,West,264,0.0,0.0,84,0.00,,,0.00,VWS V14.01,2013-07-16 03:01:00,
2013-07-15 23:06:00,77.3,72.1,30.17,West,264,0.0,0.0,84,0.00,,,0.00,VWS V14.01,2013-07-16 03:06:00,
2013-07-15 23:11:00,77.2,72.3,30.17,West,264,0.0,0.0,85,0.00,,,0.00,VWS V14.01,2013-07-16 03:11:00,
2013-07-15 23:17:00,77.0,72.5,30.17,West,264,0.0,0.0,86,0.00,,,0.00,VWS V14.01,2013-07-16 03:17:00,
2013-07-15 23:22:00,76.7,72.2,30.17,West,264,0.0,0.0,86,0.00,,,0.00,VWS V14.01,2013-07-16 03:22:00,
2013-07-15 23:27:00,76.4,71.9,30.17,West,264,0.0,0.0,86,0.00,,,0.00,VWS V14.01,2013-07-16 03:27:00,
2013-07-15 23:32:00,76.2,72.1,30.17,West,264,0.0,0.0,87,0.00,,,0.00,VWS V14.01,2013-07-16 03:32:00,
2013-07-15 23:38:00,75.9,71.8,30.17,West,264,0.0,0.0,87,0.00,,,0.00,VWS V14.01,2013-07-16 03:38:00,
2013-07-15 23:43:00,75.7,71.9,30.17,West,264,0.0,0.0,88,0.00,,,0.00,VWS V14.01,2013-07-16 03:43:00,
2013-07-15 23:48:00,75.5,71.7,30.17,West,264,0.0,0.0,88,0.00,,,0.00,VWS V14.01,2013-07-16 03:48:00,
2013-07-15 23:53:00,75.3,71.5,30.17,West,264,0.0,0.0,88,0.00,,,0.00,VWS V14.01,2013-07-16 03:53:00,
2013-07-15 23:59:00,75.2,71.4,30.17,West,264,0.0,0.0,88,0.00,,,0.00,VWS V14.01,2013-07-16 03:59:00,